Location: Fauquembergues
(50.6005°N, 2.0987°E)
Time: 20:38:34
(UTC+00:00)

Cosmos 2173 Rocket - Pass Details

Date: 14 July 2020
Orbit: 944 x 1002 km, 83.0° (Epoch: 14 August)

Event Time Altitude Azimuth Distance (km) Brightness Sun altitude
Exits shadow 01:43:01 20° 201° (SSW) 2,142 5.1 -14.1°
Maximum altitude 01:47:38 70° 282° (WNW) 1,056 4.1 -13.8°
Drops below altitude 10° 01:53:57 10° 6° (N) 2,749 7.5 -13.3°
Sets 01:56:29 0° 9° (N) 3,693 8.5 -13.2°
